Location: Arpaise
(41.0333°N, 14.7333°E)
Time: 08:01:56
(UTC+00:00)

SPOT 1/Viking Rocket - Pass Details

Date: 05 July 2020
Orbit: 778 x 793 km, 98.5° (Epoch: 05 August)

Event Time Altitude Azimuth Distance (km) Brightness Sun altitude
Exits shadow 19:51:13 16° 139° (SE) 1,924 4.9 -11.9°
Maximum altitude 19:55:02 47° 71° (ENE) 1,025 4.0 -12.4°
Drops below altitude 10° 19:59:59 10° 358° (N) 2,347 6.7 -13.1°
Sets 20:02:23 0° 353° (N) 3,282 7.7 -13.4°
